星链-1422 (STARLINK-1422 )

导读 | 星芒AI

STARLINK-1422 是 SpaceX Starlink 项目中的一颗低轨道通信卫星,属于第 14 批发射的 Starlink 卫星群。该卫星旨在为全球用户提供高速互联网服务,特别是在网络基础设施薄弱的地区。它运行在约 550 公里的高度,配备先进的相控阵天线和激光通信系统,以实现高效的数据传输和卫星间通信。作为 Starlink 卫星群的一部分,STARLINK-1422 有助于构建一个覆盖全球的宽带网络,提升远程通信和互联网接入能力。

基本信息
目录编号:
45696
目录名称:
STARLINK-1422
国际标识:
2020-035AR
轨道中心:
EARTH
卫星名称:
星链-1422
卫星全名:
星链-1422 (STARLINK-1422 )
卫星状态:
在轨 (已飞行2021 天)
发射日期:
2020-06-04 UTC
国别 :
美国 (US)
星等 :
--
轨道信息
数据来源 国际轨道数据
星历时间: 2025-12-15T07:16:34+0800
1天前
查看轨道信息
半长轴: 6925.373km
偏心率: 0.000089
轨道倾角: 53.054°
近地点辐角 89.324°
升交点赤经 76.943°
平近点角 270.785°
近地点: 546.621km
远地点: 547.855km
周期: 95.593分钟
每日圈数: 15.063921
详细信息
固有亮度:
5
最大亮度:
2.5
卫星平台:
Starlink V1.0
覆盖范围:
全球
运营商:
太空探索技术公司
运营商所在国:
美国
制造商(研发单位):
太空探索技术公司
制造商所在国:
美国
使用方式:
暂无
卫星简介
星链(Starlink)计划是由太空探索技术公司(SpaceX)提出的一个巨型低轨卫星互联网星座项目,计划在2019年至2024年间在太空搭建由约1.2万颗卫星组成的“星链”网络,其中1584颗将部署在地球上空550千米处的近地轨道,并从2020年开始工作。该卫星仍在工作。
2D轨道图
3D轨道图
轨道高度分析图
轨道倾角分析图
轨道综合分析图
查看轨道综合分析图